Regional Weather Roundup
Issued by NWS

Home | Current Version | Previous Version | Text Only | Print | Product List | Glossary On
Versions: 1 2 3 4 5 6 7 8 9 10 11 12 13 14 15 16 17 18 19 20 21 22 23 24 25 26 27 28 29 30 31 32 33 34 35 36 37 38 39 40 41 42 43 44 45 46 47 48 49 50
000
ASCA42 TJSJ 170911
RWRPR
PUERTO RICO/U.S. VIRGIN ISLANDS HOURLY WEATHER ROUNDUP
NATIONAL WEATHER SERVICE SAN JUAN PR
500 AM AST THU APR 17 2014

PRZ001-004-171000-
PUERTO RICO

CITY           SKY/WX    TMP DP  RH WIND       PRES   REMARKS
SAN JUAN LMM   MOCLDY    75  70  83 E3        29.98R
AGUADILLA      CLEAR     73  68  83 E7        29.98S
CEIBA          PTCLDY    79  70  73 E7        30.00R
$$

PRZ006-007-171000-
U.S. VIRGIN ISLANDS

CITY           SKY/WX    TMP DP  RH WIND       PRES   REMARKS
CHARLOTTE AMA  CLEAR     75  72  88 E3        29.97R
CHRISTIANSTED  PTCLDY    75  70  83 E6        29.98R
$$

HOURLY WEATHER ROUNDUP FOR THE NEWS MEDIA

CITY           SKY/WX    TMP DP  RH WIND       PRES   REMARKS
MIAMI          MOCLDY    76  71  85 E9        30.04S
ORLANDO        CLOUDY    63  59  87 N12       30.13S
NEW YORK       PTCLDY    36  22  56 NE10      30.64S WCI  28
NEWARK         PTCLDY    34  21  59 N10       30.63S WCI  26
CHICAGO        CLOUDY    43  24  47 S15       30.13F
HARTFORD       CLEAR     32  22  66 N5        30.66R WCI  27
BOSTON         PTCLDY    32  19  58 NE15      30.72R WCI  22
DALLAS         CLEAR     53  43  68 SE12      30.06S
PHILADELPHIA   CLEAR     37  17  44 NE9       30.61R WCI  30



USA.gov is the U.S. government's official web portal to all federal, state and local government web resources and services.